Home   Weather   Talkeetna   Past weeks

Flag for USA Past Weather in Talkeetna, Alaska, USA — Yesterday and Last 2 Weeks

Now
19 °F

Overcast.


Feels Like: 6 °F
Forecast: -4 / 4 °F
Wind: 13 mph from Northeast

Location: Talkeetna Weather Reporting Station

Current Time: Dec 7, 2016 at 11:12:59 pm

Latest Report: Dec 7, 2016 at 9:53 pm


Visibility: 10 mi

Pressure: 30.23 "Hg

Humidity: 57%

Dew Point: 6 °F

Location of TalkeetnaLocation

Past Weather in Talkeetna — Graph

°F

Talkeetna Temperature Yesterday

Maximum temperature yesterday: 16 °F (at 11:53 pm)
Minimum temperature yesterday: 11 °F (at 12:53 am)
Average temperature yesterday: 12 °F

High & Low Weather Summary for the Past Weeks

 TemperatureHumidityPressure
High26 °F (Nov 27, 5:53 am)92% (Dec 1, 4:53 am)30.42 "Hg (Dec 1, 4:53 am)
Low-9 °F (Nov 29, 7:53 pm)35% (Dec 3, 1:53 pm)29.01 "Hg (Nov 27, 12:53 am)
Average12 °F64%29.68 "Hg
* Reported Nov 22 9:53 pm — Dec 7 9:53 pm, Talkeetna, Weather by CustomWeather, © 2016

Note: Actual official high and low records may vary slightly from our data, if they occured in-between our weather recording intervals... More about our weather records

Advertising

Talkeetna Weather History for the Previous 24 Hours

Scroll right to see more
 ConditionsComfort  
Time TempWeatherWind HumidityBarometerVisibility
9:53 pm
Wed, Dec 7
19 °FOvercast.13 mph57%30.23 "Hg10 mi
8:53 pm19 °FOvercast.9 mph52%30.22 "Hg10 mi
7:53 pm19 °FOvercast.7 mph49%30.22 "Hg10 mi
6:53 pm18 °FMostly cloudy.5 mph52%30.22 "Hg10 mi
5:53 pm18 °FPassing clouds.5 mph49%30.22 "Hg10 mi
4:53 pm19 °FOvercast.8 mph45%30.21 "Hg10 mi
3:53 pm19 °FMostly cloudy.8 mph45%30.21 "Hg10 mi
2:53 pm19 °FOvercast.8 mph45%30.22 "Hg10 mi
1:53 pm19 °FOvercast.7 mph45%30.21 "Hg10 mi
12:53 pm19 °FOvercast.8 mph47%30.22 "Hg10 mi
11:53 am19 °FOvercast.6 mph47%30.21 "Hg10 mi
10:53 am18 °FOvercast.7 mph52%30.21 "Hg10 mi
9:53 am19 °FOvercast.7 mph47%30.20 "Hg10 mi
8:53 am19 °FMostly cloudy.7 mph52%30.19 "Hg10 mi
7:53 am19 °FOvercast.8 mph54%30.18 "Hg10 mi
6:53 am20 °FPassing clouds.8 mph52%30.18 "Hg10 mi
5:53 am20 °FMostly cloudy.9 mph55%30.18 "Hg10 mi
4:53 am18 °FOvercast.6 mph59%30.17 "Hg10 mi
3:53 am17 °FMostly cloudy.5 mph56%30.18 "Hg10 mi
2:53 am16 °FOvercast.7 mph56%30.18 "Hg10 mi
1:53 am16 °FPassing clouds.8 mph53%30.19 "Hg10 mi
12:53 am15 °FPassing clouds.9 mph56%30.18 "Hg10 mi
11:53 pm
Tue, Dec 6
16 °FOvercast.16 mph53%30.18 "Hg10 mi
Weather by CustomWeather, © 2016

See weather overviewHow to use our weather pages